Location: Gull Harbor
(47.1000°N, 122.9000°W)
Time: 22:48:51
(UTC-07:00)

ISS - Pass Details

Date: 23 March 2019
Orbit: 408 x 410 km, 51.6° (Epoch: 24 April)

Event Time Altitude Azimuth Distance (km) Brightness Sun altitude
Rises 21:34:12 0° 253° (WSW) 2,331 0.7 -21.4°
Reaches altitude 10° 21:36:18 10° 257° (WSW) 1,472 -0.3 -21.7°
Enters shadow 21:39:08 56° 296° (WNW) 495 -3.2 -22.1°
